This demonstration page uses our WeatherBlox Daily Observations layout. Learn more.

Left ArrowRight Arrow

36.17497, -115.13722

Hourly Observations for April 23, 2016

Temp ( °F °C ) Dew Point ( °F °C ) Humidity (%) Winds ( mph kmh ) Pressure ( in mb ) Visibility ( mi km ) Precip ( " mm )
12:48 am 00:48 Clear 66 19 34 1 30 30 SW 16 26 29.71 1006 10 16.0934 0 0
12:53 am 00:53 Clear 65 18.3 34 1.1 32 32 SW 13 20 29.77 1008 10 16.0934 0 0
1:53 am 01:53 Clear 64 17.8 30 -1.1 28 28 WSW 23 37 29.74 1007 10 16.0934 0 0
2:53 am 02:53 Clear 63 17.2 29 -1.7 28 28 W 10 17 29.78 1008 10 16.0934 0 0
3:53 am 03:53 Clear 62 16.7 29 -1.7 29 29 SSW 13 20 29.81 1010 10 16.0934 0 0
4:53 am 04:53 Clear 62 16.7 29 -1.7 29 29 NNW 8 13 29.85 1011 10 16.0934 0 0
5:53 am 05:53 Clear 60 15.6 31 -0.6 33 33 NW 14 22 29.89 1012 10 16.0934 0 0
6:53 am 06:53 Sunny 60 15.6 25 -3.9 26 26 NNW 24 39 29.91 1013 10 16.0934 0 0
7:53 am 07:53 Sunny 61 16.1 19 -7.2 20 20 NNW 24 39 29.95 1014 10 16.0934 0 0
8:53 am 08:53 Sunny 62 16.7 18 -7.8 18 18 N 14 22 29.97 1015 10 16.0934 0 0
9:53 am 09:53 Sunny 65 18.3 20 -6.7 18 18 N 17 28 29.98 1015 10 16.0934 0 0
10:53 am 10:53 Sunny 66 18.9 21 -6.1 18 18 NW 18 30 29.99 1016 10 16.0934 0 0
11:53 am 11:53 Sunny 69 20.6 21 -6.1 16 16 NNW 16 26 29.98 1015 10 16.0934 0 0
12:53 pm 12:53 Sunny 72 22.2 21 -6.1 15 15 N 17 28 29.97 1015 10 16.0934 0 0
1:53 pm 13:53 Sunny 73 22.8 21 -6.1 14 14 NNW 14 22 29.96 1015 10 16.0934 0 0
2:53 pm 14:53 Sunny 75 23.9 22 -5.6 14 14 N 17 28 29.93 1014 10 16.0934 0 0
3:53 pm 15:53 Sunny 76 24.4 22 -5.6 13 13 N 15 24 29.89 1012 10 16.0934 0 0
4:53 pm 16:53 Sunny 77 25 18 -7.8 11 11 N 20 31 29.88 1012 10 16.0934 0 0
5:53 pm 17:53 Sunny 76 24.4 19 -7.2 12 12 NNW 13 20 29.88 1012 10 16.0934 0 0
6:53 pm 18:53 Sunny 75 23.9 18 -7.8 11 11 NW 6 9 29.87 1012 10 16.0934 0 0
7:53 pm 19:53 Clear 74 23.3 18 -7.8 12 12 NW 8 13 29.88 1012 10 16.0934 0 0
8:53 pm 20:53 Clear 73 22.8 17 -8.3 12 12 NW 10 17 29.9 1012 10 16.0934 0 0
9:53 pm 21:53 Clear 71 21.7 16 -8.9 12 12 NNW 10 17 29.9 1013 10 16.0934 0 0
10:53 pm 22:53 Clear 68 20 16 -8.9 13 13 NW 20 31 29.9 1012 10 16.0934 0 0
11:53 pm 23:53 Clear 67 19.4 15 -9.4 13 13 NW 18 30 29.9 1013 10 16.0934 0 0

Powered by AerisWeather